EN

Hourly Weather Mafeteng

Today, 27 November, Friday

Time Temperature Precipitation Wind Pressure Humidity
00:00 +12°C° 0 mm 0 mps 626 mmHg 32%
01:00 +12°C° 0 mm 0 mps 626 mmHg 35%
02:00 +11°C° 0 mm 0 mps 626 mmHg 36%
03:00 +11°C° 0 mm 0 mps 626 mmHg 40%
04:00 +10°C° 0 mm 0 mps 626 mmHg 45%
05:00 +9°C° 0 mm 0 mps 626 mmHg 49%
06:00 +13°C° 0 mm 1 mps 627 mmHg 41%
07:00 +16°C° 0 mm 1 mps 628 mmHg 33%
08:00 +19°C° 0 mm 2 mps 630 mmHg 26%
09:00 +21°C° 0 mm 3 mps 630 mmHg 23%
10:00 +24°C° 0 mm 3 mps 630 mmHg 19%
11:00 +26°C° 0 mm 4 mps 630 mmHg 15%
12:00 +27°C° 0 mm 5 mps 630 mmHg 14%
13:00 +28°C° 0 mm 5 mps 630 mmHg 13%
14:00 +30°C° 0 mm 6 mps 630 mmHg 12%
15:00 +29°C° 0 mm 6 mps 629 mmHg 11%
16:00 +29°C° 0 mm 6 mps 629 mmHg 11%
17:00 +29°C° 0 mm 5 mps 628 mmHg 10%
18:00 +26°C° 0 mm 4 mps 628 mmHg 13%
19:00 +23°C° 0 mm 2 mps 627 mmHg 17%
20:00 +20°C° 0 mm 1 mps 626 mmHg 20%
21:00 +20°C° 0 mm 1 mps 627 mmHg 20%
22:00 +19°C° 0 mm 1 mps 627 mmHg 19%
23:00 +18°C° 0 mm 2 mps 627 mmHg 18%

Tomorrow, 28 November, Saturday

Time Temperature Precipitation Wind Pressure Humidity
00:00 +17°C° 0 mm 2 mps 627 mmHg 32%
01:00 +17°C° 0 mm 3 mps 626 mmHg 46%
02:00 +15°C° 0 mm 4 mps 626 mmHg 60%
03:00 +15°C° 0 mm 5 mps 626 mmHg 65%
04:00 +15°C° 0 mm 6 mps 625 mmHg 70%
05:00 +15°C° 0 mm 8 mps 625 mmHg 75%
06:00 +16°C° 0.4 mm 8 mps 625 mmHg 76%
07:00 +17°C° 0.4 mm 9 mps 626 mmHg 78%
08:00 +17°C° 0.4 mm 9 mps 626 mmHg 80%
09:00 +18°C° 1.2 mm 10 mps 626 mmHg 74%
10:00 +19°C° 1.2 mm 10 mps 626 mmHg 68%
11:00 +19°C° 1.2 mm 11 mps 627 mmHg 62%
12:00 +19°C° 0.1 mm 11 mps 626 mmHg 62%
13:00 +19°C° 0.1 mm 11 mps 626 mmHg 62%
14:00 +19°C° 0.1 mm 10 mps 625 mmHg 62%
15:00 +18°C° 3.7 mm 9 mps 624 mmHg 71%
16:00 +16°C° 3.7 mm 8 mps 623 mmHg 80%
17:00 +15°C° 3.7 mm 7 mps 622 mmHg 89%
18:00 +15°C° 1.4 mm 6 mps 623 mmHg 87%
19:00 +15°C° 1.4 mm 6 mps 623 mmHg 86%
20:00 +14°C° 1.4 mm 5 mps 624 mmHg 85%
21:00 +14°C° 0.1 mm 5 mps 624 mmHg 86%
22:00 +14°C° 0.1 mm 4 mps 625 mmHg 88%
23:00 +14°C° 0.1 mm 4 mps 625 mmHg 89%

Day after tomorrow, 29 November, Sunday

Time Temperature Precipitation Wind Pressure Humidity
00:00 +14°C° 0 mm 3 mps 625 mmHg 88%
01:00 +14°C° 0 mm 3 mps 625 mmHg 87%
02:00 +15°C° 0 mm 2 mps 624 mmHg 86%
03:00 +15°C° 0 mm 2 mps 624 mmHg 87%
04:00 +15°C° 0 mm 2 mps 624 mmHg 89%
05:00 +14°C° 0 mm 2 mps 624 mmHg 90%
06:00 +15°C° 0 mm 2 mps 625 mmHg 83%
07:00 +17°C° 0 mm 3 mps 625 mmHg 75%
08:00 +18°C° 0 mm 3 mps 626 mmHg 68%
09:00 +19°C° 0 mm 4 mps 626 mmHg 57%
10:00 +21°C° 0 mm 4 mps 626 mmHg 46%
11:00 +23°C° 0 mm 4 mps 627 mmHg 35%
12:00 +25°C° 0 mm 5 mps 627 mmHg 31%
13:00 +26°C° 0 mm 5 mps 627 mmHg 27%
14:00 +27°C° 0 mm 5 mps 626 mmHg 23%
15:00 +27°C° 0 mm 5 mps 626 mmHg 22%
16:00 +27°C° 0 mm 5 mps 626 mmHg 22%
17:00 +27°C° 0 mm 5 mps 626 mmHg 21%
18:00 +23°C° 0 mm 4 mps 625 mmHg 25%
19:00 +21°C° 0 mm 3 mps 625 mmHg 29%
20:00 +19°C° 0 mm 2 mps 624 mmHg 33%
21:00 +18°C° 0 mm 2 mps 624 mmHg 35%
22:00 +18°C° 0 mm 1 mps 625 mmHg 36%
23:00 +18°C° 0 mm 1 mps 625 mmHg 38%

30 November, Monday

Time Temperature Precipitation Wind Pressure Humidity
00:00 +16°C° 0 mm 1 mps 624 mmHg 39%
01:00 +16°C° 0 mm 1 mps 624 mmHg 41%
02:00 +15°C° 0 mm 1 mps 624 mmHg 43%
03:00 +15°C° 0 mm 1 mps 624 mmHg 48%
04:00 +14°C° 0 mm 2 mps 624 mmHg 53%
05:00 +14°C° 0 mm 2 mps 624 mmHg 58%
06:00 +16°C° 0 mm 3 mps 624 mmHg 57%
07:00 +18°C° 0 mm 3 mps 625 mmHg 56%
08:00 +20°C° 0 mm 4 mps 626 mmHg 55%
09:00 +22°C° 0 mm 5 mps 626 mmHg 50%
10:00 +25°C° 0 mm 5 mps 626 mmHg 45%
11:00 +26°C° 0 mm 6 mps 626 mmHg 41%
12:00 +27°C° 0 mm 6 mps 625 mmHg 37%
13:00 +27°C° 0 mm 5 mps 625 mmHg 34%
14:00 +28°C° 0 mm 5 mps 625 mmHg 30%
15:00 +28°C° 0 mm 5 mps 624 mmHg 29%
16:00 +28°C° 0 mm 4 mps 624 mmHg 27%
17:00 +28°C° 0 mm 4 mps 624 mmHg 25%
18:00 +26°C° 0 mm 3 mps 623 mmHg 27%
19:00 +24°C° 0 mm 3 mps 623 mmHg 28%
20:00 +21°C° 0 mm 2 mps 622 mmHg 30%
21:00 +20°C° 0 mm 2 mps 622 mmHg 29%
22:00 +20°C° 0 mm 1 mps 622 mmHg 29%
23:00 +18°C° 0 mm 1 mps 622 mmHg 28%

1 December, Tuesday

Time Temperature Precipitation Wind Pressure Humidity
00:00 +18°C° 0 mm 1 mps 622 mmHg 29%
01:00 +17°C° 0 mm 2 mps 622 mmHg 29%
02:00 +17°C° 0 mm 2 mps 622 mmHg 30%
03:00 +16°C° 0 mm 2 mps 622 mmHg 45%
04:00 +14°C° 0 mm 3 mps 622 mmHg 59%
05:00 +13°C° 0 mm 3 mps 622 mmHg 74%
06:00 +15°C° 0 mm 4 mps 623 mmHg 68%
07:00 +18°C° 0 mm 4 mps 623 mmHg 63%
08:00 +20°C° 0 mm 5 mps 624 mmHg 57%
09:00 +23°C° 0 mm 5 mps 625 mmHg 45%
10:00 +26°C° 0 mm 6 mps 625 mmHg 32%
11:00 +28°C° 0 mm 6 mps 626 mmHg 19%
12:00 +29°C° 0 mm 7 mps 626 mmHg 18%
13:00 +31°C° 0 mm 8 mps 626 mmHg 16%
14:00 +31°C° 0 mm 9 mps 625 mmHg 15%
15:00 +31°C° 0 mm 8 mps 625 mmHg 15%
16:00 +29°C° 0 mm 8 mps 625 mmHg 16%
17:00 +28°C° 0 mm 7 mps 624 mmHg 17%
18:00 +26°C° 0 mm 7 mps 624 mmHg 22%
19:00 +22°C° 0 mm 6 mps 624 mmHg 28%
20:00 +20°C° 0 mm 5 mps 624 mmHg 34%
21:00 +19°C° 0 mm 4 mps 624 mmHg 41%
22:00 +18°C° 0 mm 3 mps 625 mmHg 48%
23:00 +17°C° 0 mm 2 mps 625 mmHg 56%

2 December, Wednesday

Time Temperature Precipitation Wind Pressure Humidity
00:00 +16°C° 0 mm 2 mps 625 mmHg 63%
01:00 +15°C° 0 mm 2 mps 625 mmHg 70%
02:00 +15°C° 0 mm 1 mps 625 mmHg 77%
03:00 +14°C° 0 mm 1 mps 625 mmHg 79%
04:00 +14°C° 0 mm 1 mps 625 mmHg 81%
05:00 +13°C° 0 mm 1 mps 625 mmHg 82%
06:00 +15°C° 0 mm 1 mps 625 mmHg 74%
07:00 +18°C° 0 mm 1 mps 626 mmHg 65%
08:00 +20°C° 0 mm 1 mps 627 mmHg 57%
09:00 +21°C° 0 mm 2 mps 627 mmHg 50%
10:00 +24°C° 0 mm 2 mps 627 mmHg 44%
11:00 +26°C° 0 mm 3 mps 627 mmHg 37%
12:00 +26°C° 0 mm 3 mps 627 mmHg 34%
13:00 +27°C° 0 mm 4 mps 626 mmHg 32%
14:00 +27°C° 0 mm 4 mps 626 mmHg 29%
15:00 +25°C° 0.3 mm 5 mps 625 mmHg 37%
16:00 +23°C° 0.3 mm 5 mps 625 mmHg 44%
17:00 +21°C° 0.3 mm 6 mps 624 mmHg 52%
18:00 +19°C° 1.1 mm 5 mps 624 mmHg 59%
19:00 +18°C° 1.1 mm 4 mps 624 mmHg 66%
20:00 +17°C° 1.1 mm 3 mps 624 mmHg 73%
21:00 +17°C° 0.1 mm 3 mps 625 mmHg 72%
22:00 +17°C° 0.1 mm 3 mps 625 mmHg 72%
23:00 +17°C° 0.1 mm 3 mps 626 mmHg 72%
Show more

We Need Your Consent

Meteoprog and our Service Providers may store and access personal data such as cookies, device identifiers or other similar technologies on your device and process such data to personalise content and ads, as well as provide social media features and to analyse the traffic.

  • Store and/or access information on your device

    Cookies, device identifiers or other information can be stored or accessed on your device for the purposes indicated above.

  • Personalised ads and content, ad and content measurement, audience insights, and products development

    Ads and content can be personalised based on a profile. More data can be added to better personalise ads and content. Ad and content performance can be measured. Insights about the audience who saw the ads and content can be derived. Such data can be used to develop or improve user’s experience, systems and software.

By clicking ‘I Agree’ you will allow the use of indicated cookies, device identifiers, web beacons or other similar technologies. Your settings can be changed in the browser on your device.

For certain purposes, legitimate interests may be relied on, rather than consent. You can read more about this in our Privacy and Cookie Policy.